QPF
0.00 0.00 0.00 0.00 0.00 0.00 0.00 0.00 0.00 0.00 0.00 0.00 0.00 0.00 0.00 0.00 0.00 0.00 0.00 0.00 0.00 0.00 0.00 0.00 0.00 0.00 0.00 0.00 0.00 0.00 0.00 0.00 0.00 0.00 0.00 0.00 0.00 0.00 0.00 0.00 0.00 0.00 0.00 0.00 0.00
0.01 0.00 0.00 0.00 0.00 0.00 0.00 0.00 0.00 0.00 0.00 0.00 0.00 0.00 0.00 0.00 0.00 0.00 0.00 0.00 0.00 0.00 0.00 0.00 0.00 0.00 0.00 0.00 0.00 0.00 0.00 0.00 0.00 0.00 0.00 0.00 0.00 0.00 0.00 0.00 0.00 0.00 0.00 0.00 0.00
0.00 0.00 0.00 0.00 0.00 0.00 0.00 0.00 0.00 0.00 0.00 0.00 0.00 0.00 0.00 0.00 0.00 0.00 0.00 0.00 0.00 0.00 0.00 0.00 0.00 0.00 0.00 0.00 0.00 0.00 0.00 0.00 0.00 0.00 0.00 0.00 0.00 0.00 0.00 0.00 0.00 0.00 0.00 0.00 0.00
0.00 0.00 0.00 0.00 0.00 0.00 0.00 0.00 0.00 0.00 0.00 0.00 0.00 0.00 0.00 0.00 0.00 0.00 0.00 0.00 0.00 0.00 0.00 0.00 0.00 0.00 0.00 0.00 0.00 0.00 0.00 0.00 0.00 0.00 0.00 0.00 0.00 0.00 0.00 0.00 0.00 0.00 0.00 0.00 0.00
0.00 0.00 0.00 0.00 0.00 0.00 0.00 0.00 0.00 0.00 0.00 0.00 0.00 0.00 0.00 0.00 0.00 0.00 0.00 0.00 0.00 0.00 0.00 0.00 0.00 0.00 0.00 0.00 0.00 0.00 0.00 0.00 0.00 0.00 0.00 0.00 0.00 0.00 0.00 0.00 0.00 0.00 0.00 0.00 0.00
0.00 0.00 0.00 0.00 0.00 0.00 0.00 0.00 0.00 0.00 0.00 0.00 0.00 0.00 0.00 0.00 0.00 0.00 0.00 0.00 0.00 0.00 0.00 0.00 0.00 0.00 0.00 0.00 0.00 0.00 0.00 0.00 0.00 0.00 0.00 0.00 0.00 0.00 0.00 0.00 0.00 0.00 0.00 0.00 0.00
0.00 0.00 0.00 0.00 0.00 0.00 0.00 0.00 0.00 0.00 0.00 0.00 0.00 0.00 0.00 0.00 0.00 0.00 0.00 0.00 0.00 0.00 0.00 0.00 0.00 0.00 0.00 0.00 0.00 0.00 0.00 0.00 0.00 0.00 0.00 0.00 0.00 0.00 0.00 0.00 0.00 0.00 0.00 0.00 0.00
0.00 0.00 0.00 0.00 0.00 0.00 0.00 0.00 0.00 0.00 0.00 0.00 0.00 0.00 0.00 0.00 0.00 0.00 0.00 0.00 0.00 0.00 0.00 0.00 0.00 0.00 0.00 0.00 0.00 0.00 0.00 0.00 0.00 0.00 0.00 0.00 0.00 0.00 0.00 0.00 0.00 0.00 0.00 0.00 0.00
0.00 0.00 0.00 0.00 0.00 0.00 0.00 0.00 0.00 0.00 0.00 0.00 0.00 0.00 0.00 0.00 0.00 0.00 0.00 0.00 0.00 0.00 0.00 0.00 0.00 0.00 0.00 0.00 0.00 0.00 0.00 0.00 0.00 0.00 0.00 0.00 0.00 0.00 0.00 0.00 0.00 0.00 0.00 0.00 0.00
0.00 0.00 0.00 0.00 0.00 0.00 0.00 0.00 0.00 0.00 0.00 0.00 0.00 0.00 0.00 0.00 0.00 0.00 0.00 0.00 0.00 0.00 0.00 0.00 0.00 0.00 0.00 0.00 0.00 0.00 0.00 0.00 0.00 0.00 0.00 0.00 0.00 0.00 0.00 0.00 0.00 0.00 0.00 0.00 0.00
0.00 0.00 0.00 0.00 0.00 0.00 0.00 0.00 0.00 0.00 0.00 0.00 0.00 0.00 0.00 0.00 0.00 0.00 0.00 0.00 0.00 0.00 0.00 0.00 0.00 0.00 0.00 0.00 0.00 0.00 0.00 0.00 0.00 0.00 0.00 0.00 0.00 0.00 0.00 0.00 0.00 0.00 0.00 0.00 0.00
0.00 0.00 0.00 0.00 0.00 0.00 0.00 0.00 0.00 0.00 0.00 0.00 0.00 0.00 0.00 0.00 0.00 0.00 0.00 0.00 0.00 0.00 0.00 0.00 0.00 0.00 0.00 0.00 0.00 0.00 0.00 0.00 0.00 0.00 0.00 0.00 0.00 0.00 0.00 0.00 0.00 0.00 0.00 0.00 0.00
0.00 0.00 0.00 0.00 0.00 0.00 0.00 0.00 0.00 0.00 0.00 0.00 0.00 0.00 0.00 0.00 0.00 0.00 0.00 0.00 0.00 0.00 0.00 0.00 0.00 0.00 0.00 0.00 0.00 0.00 0.00 0.00 0.00 0.00 0.00 0.00 0.00 0.00 0.00 0.00 0.00 0.00 0.00 0.00 0.00
0.00 0.00 0.00 0.00 0.00 0.00 0.00 0.00 0.00 0.00 0.00 0.00 0.00 0.00 0.00 0.00 0.00 0.00 0.00 0.00 0.00 0.00 0.00 0.00 0.00 0.00 0.00 0.00 0.00 0.00 0.00 0.00 0.00 0.00 0.00 0.00 0.00 0.00 0.00 0.00 0.00 0.00 0.00 0.00 0.00
0.00 0.00 0.00 0.00 0.00 0.00 0.00 0.00 0.00 0.00 0.00 0.00 0.00 0.00 0.00 0.00 0.00 0.00 0.00 0.00 0.00 0.00 0.00 0.00 0.00 0.00 0.00 0.00 0.00 0.00 0.00 0.00 0.00 0.00 0.00 0.00 0.00 0.00 0.00 0.00 0.00 0.00 0.00 0.00 0.00
0.00 0.00 0.00 0.00 0.00 0.00 0.00 0.00 0.00 0.00 0.00 0.00 0.00 0.00 0.00 0.00 0.00 0.00 0.00 0.00 0.00 0.00 0.00 0.00 0.00 0.00 0.00 0.00 0.00 0.00 0.00 0.00 0.00 0.00 0.00 0.00 0.00 0.00 0.00 0.00 0.00 0.00 0.00 0.00 0.00
0.00 0.00 0.00 0.00 0.00 0.00 0.00 0.00 0.00 0.00 0.00 0.00 0.00 0.00 0.00 0.00 0.00 0.00 0.00 0.00 0.00 0.00 0.00 0.00 0.00 0.00 0.00 0.00 0.00 0.00 0.00 0.00 0.00 0.00 0.00 0.00 0.00 0.00 0.00 0.00 0.00 0.00 0.00 0.00 0.00
0.00 0.00 0.00 0.00 0.00 0.00 0.00 0.00 0.00 0.00 0.00 0.00 0.00 0.00 0.00 0.00 0.00 0.00 0.00 0.00 0.00 0.00 0.00 0.00 0.00 0.00 0.00 0.00 0.00 0.00 0.00 0.00 0.00 0.00 0.00 0.00 0.00 0.00 0.00 0.00 0.00 0.00 0.00 0.00 0.00
0.00 0.00 0.00 0.00 0.00 0.00 0.00 0.00 0.00 0.00 0.00 0.00 0.00 0.00 0.00 0.00 0.00 0.00 0.00 0.00 0.00 0.00 0.00 0.00 0.00 0.00 0.00 0.00 0.00 0.00 0.00 0.00 0.00 0.00 0.00 0.00 0.00 0.00 0.00 0.00 0.00 0.00 0.00 0.00 0.00
0.00 0.00 0.00 0.00 0.00 0.00 0.00 0.00 0.00 0.00 0.00 0.00 0.00 0.00 0.00 0.00 0.00 0.00 0.00 0.00 0.00 0.00 0.00 0.00 0.00 0.00 0.00 0.00 0.00 0.00 0.00 0.00 0.00 0.00 0.00 0.00 0.00 0.00 0.00 0.00 0.00 0.00 0.00 0.00 0.00
0.00 0.00 0.00 0.00 0.00 0.00 0.00 0.00 0.00 0.00 0.00 0.00 0.00 0.00 0.00 0.00 0.00 0.00 0.00 0.00 0.00 0.00 0.00 0.00 0.00 0.00 0.00 0.00 0.00 0.00 0.00 0.00 0.00 0.00 0.01 0.02 0.00 0.00 0.00 0.00 0.00 0.00 0.00 0.00 0.00
0.00 0.00 0.00 0.00 0.00 0.00 0.00 0.00 0.00 0.00 0.00 0.00 0.00 0.00 0.00 0.00 0.00 0.00 0.00 0.00 0.00 0.00 0.00 0.00 0.01 0.01 0.00 0.00 0.00 0.00 0.00 0.01 0.05 0.06 0.02 0.04 0.02 0.00 0.00 0.00 0.00 0.00 0.00 0.00 0.00
0.00 0.00 0.00 0.00 0.00 0.00 0.00 0.00 0.00 0.00 0.00 0.00 0.00 0.00 0.00 0.00 0.00 0.00 0.00 0.00 0.00 0.00 0.00 0.00 0.00 0.00 0.00 0.00 0.00 0.00 0.00 0.03 0.12 0.26 0.18 0.13 0.06 0.00 0.00 0.00 0.00 0.00 0.00 0.00 0.00
0.00 0.00 0.00 0.00 0.00 0.00 0.00 0.00 0.00 0.00 0.00 0.00 0.00 0.00 0.00 0.00 0.00 0.00 0.00 0.00 0.00 0.00 0.00 0.00 0.00 0.01 0.00 0.00 0.00 0.00 0.00 0.00 0.01 0.07 0.05 0.05 0.03 0.00 0.00 0.00 0.00 0.00 0.00 0.00 0.00
0.00 0.00 0.00 0.00 0.00 0.00 0.00 0.00 0.00 0.00 0.00 0.00 0.00 0.00 0.00 0.00 0.00 0.00 0.00 0.00 0.00 0.00 0.00 0.00 0.00 0.00 0.00 0.00 0.00 0.00 0.00 0.00 0.00 0.00 0.01 0.01 0.01 0.00 0.00 0.00 0.00 0.00 0.00 0.00 0.00
0.00 0.00 0.00 0.00 0.00 0.00 0.00 0.00 0.00 0.00 0.00 0.00 0.00 0.00 0.00 0.00 0.00 0.00 0.00 0.00 0.00 0.00 0.00 0.00 0.00 0.00 0.00 0.00 0.00 0.00 0.00 0.00 0.00 0.00 0.00 0.00 0.00 0.00 0.00 0.00 0.00 0.00 0.00 0.00 0.00
0.00 0.00 0.00 0.00 0.00 0.00 0.00 0.00 0.00 0.00 0.00 0.00 0.00 0.00 0.00 0.00 0.00 0.00 0.00 0.00 0.00 0.00 0.00 0.00 0.00 0.00 0.01 0.00 0.00 0.00 0.00 0.00 0.00 0.00 0.01 0.01 0.04 0.05 0.05 0.02 0.00 0.00 0.00 0.00 0.00
MSLP
1017.35 1017.39 1017.47 1017.45 1017.45 1017.49 1017.44 1017.28 1017.18 1017.05 1016.88 1016.66 1016.48 1016.30 1016.08 1015.81 1015.29 1015.15 1014.80 1013.81 1013.72 1013.53 1013.28 1013.19 1013.15 1013.20 1013.23 1013.71 1013.95 1014.46 1015.27 1015.48 1014.98 1014.78 1013.75 1013.42 1013.64 1013.62 1013.88 1014.44 1014.79 1014.84 1014.97 1014.85 1015.05
1017.43 1017.42 1017.44 1017.44 1017.44 1017.39 1017.33 1017.24 1017.15 1017.02 1016.82 1016.56 1016.40 1016.26 1016.04 1015.76 1015.48 1014.80 1013.67 1013.49 1013.60 1013.55 1013.47 1013.57 1013.66 1013.54 1013.91 1013.90 1014.31 1014.61 1015.35 1014.86 1014.01 1013.66 1013.34 1013.18 1013.37 1013.41 1014.02 1014.46 1014.72 1014.80 1014.81 1015.05 1015.48
1017.56 1017.53 1017.49 1017.44 1017.35 1017.26 1017.23 1017.15 1017.06 1016.88 1016.65 1016.40 1016.32 1016.17 1015.87 1015.75 1015.33 1014.02 1013.30 1013.46 1013.55 1013.68 1013.80 1013.85 1013.86 1013.81 1014.04 1014.09 1014.31 1014.69 1014.64 1014.13 1013.41 1013.10 1012.98 1013.09 1013.27 1013.39 1013.68 1014.38 1013.87 1013.81 1014.12 1015.05 1015.57
1017.75 1017.60 1017.50 1017.38 1017.23 1017.17 1017.09 1016.99 1016.87 1016.69 1016.48 1016.35 1016.24 1016.03 1015.68 1015.59 1015.14 1013.69 1013.45 1013.56 1013.66 1013.73 1013.87 1013.88 1013.86 1014.07 1014.28 1014.31 1014.16 1014.50 1013.90 1013.74 1013.17 1012.86 1013.02 1013.00 1012.97 1013.25 1013.22 1012.42 1012.46 1012.84 1013.51 1014.50 1015.14
1017.88 1017.67 1017.45 1017.32 1017.20 1017.10 1016.92 1016.78 1016.66 1016.49 1016.32 1016.21 1016.09 1015.82 1015.65 1015.44 1014.54 1013.58 1013.56 1013.74 1013.86 1013.96 1014.02 1014.12 1014.24 1014.38 1014.57 1014.48 1014.33 1014.32 1013.82 1013.48 1013.03 1012.97 1012.98 1012.93 1012.91 1013.03 1012.42 1012.31 1012.59 1012.89 1013.60 1014.08 1014.41
1017.90 1017.70 1017.52 1017.38 1017.32 1017.12 1016.92 1016.75 1016.58 1016.39 1016.24 1016.15 1015.97 1015.80 1015.63 1015.19 1013.82 1013.64 1013.73 1013.86 1013.99 1014.07 1014.16 1014.25 1014.40 1014.51 1014.63 1014.59 1014.53 1014.16 1013.87 1013.55 1013.25 1013.26 1013.24 1013.20 1012.97 1012.93 1011.81 1011.85 1012.66 1013.15 1013.38 1013.53 1013.65
1017.93 1017.72 1017.57 1017.45 1017.24 1017.01 1016.77 1016.62 1016.47 1016.38 1016.27 1016.10 1015.93 1015.73 1015.68 1014.74 1014.02 1013.87 1013.83 1013.97 1014.03 1014.09 1014.24 1014.23 1014.34 1014.65 1014.88 1014.77 1014.57 1014.35 1014.43 1013.98 1013.63 1013.54 1013.51 1013.40 1013.39 1011.96 1011.88 1012.22 1012.67 1013.13 1013.20 1013.19 1013.09
1018.05 1017.84 1017.60 1017.35 1017.07 1016.74 1016.51 1016.31 1016.18 1016.18 1016.15 1016.08 1015.95 1015.85 1015.25 1014.20 1014.10 1014.05 1014.04 1014.05 1014.08 1014.09 1014.21 1014.24 1014.35 1014.70 1015.05 1015.06 1015.06 1015.22 1015.19 1015.14 1013.93 1013.76 1013.39 1013.66 1012.46 1011.14 1011.69 1012.30 1012.53 1012.66 1012.97 1012.98 1012.77
1018.17 1017.91 1017.57 1017.22 1016.94 1016.66 1016.36 1016.13 1015.97 1015.92 1015.96 1016.03 1016.04 1015.84 1015.06 1014.07 1014.05 1013.96 1014.09 1014.31 1014.29 1014.30 1014.31 1014.43 1014.64 1015.29 1015.53 1016.17 1016.72 1016.63 1016.33 1015.93 1014.95 1013.81 1013.88 1013.94 1013.00 1011.33 1011.42 1012.17 1012.29 1012.34 1012.23 1012.41 1012.22
1018.16 1017.82 1017.51 1017.17 1016.83 1016.52 1016.22 1016.00 1015.86 1015.78 1015.93 1015.84 1015.92 1016.17 1014.80 1014.35 1014.04 1014.04 1014.12 1014.22 1014.47 1014.65 1014.94 1015.25 1015.94 1016.40 1017.02 1017.12 1017.45 1016.88 1016.83 1016.22 1015.60 1014.41 1014.29 1013.75 1012.66 1011.36 1011.60 1012.03 1011.99 1011.86 1011.96 1011.97 1011.83
1018.13 1017.80 1017.45 1017.12 1016.84 1016.61 1016.19 1015.99 1016.32 1016.19 1015.97 1015.62 1015.55 1015.46 1014.82 1014.32 1014.10 1014.31 1014.35 1014.53 1014.81 1015.31 1015.98 1016.52 1017.18 1016.95 1017.00 1017.05 1016.87 1017.01 1017.00 1016.69 1015.64 1014.73 1014.58 1013.84 1012.68 1011.97 1011.09 1011.56 1011.34 1011.18 1011.09 1010.71 1010.06
1018.23 1017.81 1017.43 1017.03 1016.68 1016.39 1016.46 1016.38 1016.44 1016.49 1016.07 1015.53 1015.65 1015.58 1015.10 1014.70 1014.62 1014.42 1014.41 1014.95 1015.44 1016.26 1016.84 1017.51 1017.22 1016.37 1016.72 1016.99 1017.21 1017.10 1016.94 1016.33 1015.15 1014.42 1014.43 1013.36 1011.11 1010.77 1010.49 1009.85 1010.05 1009.88 1009.67 1009.07 1008.85
1018.00 1017.48 1016.95 1016.51 1016.15 1016.31 1016.59 1016.85 1016.41 1016.21 1016.45 1015.69 1015.22 1015.01 1014.72 1014.89 1015.00 1014.64 1014.76 1015.23 1015.67 1016.33 1016.86 1017.30 1016.01 1015.78 1016.37 1016.76 1017.06 1016.89 1016.98 1016.30 1015.81 1014.96 1013.92 1013.40 1008.92 1009.31 1008.41 1008.02 1008.45 1008.63 1007.94 1007.61 1007.53
1017.87 1017.33 1016.74 1016.17 1016.28 1016.83 1016.83 1016.71 1016.41 1016.32 1016.65 1015.88 1015.12 1014.59 1014.49 1014.55 1014.80 1014.50 1014.60 1015.08 1015.77 1016.22 1016.80 1016.99 1015.63 1015.79 1016.13 1016.28 1015.96 1015.90 1015.23 1015.16 1015.55 1015.87 1014.89 1013.60 1009.47 1008.58 1007.89 1007.48 1007.41 1007.24 1007.04 1006.65 1006.42
1017.64 1017.25 1016.88 1016.28 1016.81 1016.93 1016.95 1016.54 1016.38 1016.57 1016.83 1015.95 1014.96 1014.25 1014.44 1014.93 1014.98 1014.69 1014.65 1014.89 1015.45 1015.99 1016.70 1015.76 1015.31 1015.27 1015.34 1014.78 1014.84 1014.57 1014.32 1014.73 1015.12 1015.52 1015.14 1013.52 1013.38 1004.89 1006.40 1006.88 1006.96 1006.22 1005.66 1005.58 1005.17
1017.45 1017.19 1017.04 1016.90 1017.03 1016.91 1016.78 1016.51 1016.69 1017.07 1016.66 1016.03 1015.38 1015.17 1015.17 1015.13 1015.18 1015.08 1015.08 1015.13 1015.37 1015.80 1015.88 1015.46 1014.71 1014.57 1013.71 1013.35 1013.66 1013.81 1014.31 1014.69 1015.46 1015.78 1014.85 1011.91 1012.63 1005.44 1006.13 1005.56 1005.34 1005.06 1004.93 1004.45 1004.24
1017.18 1016.93 1016.96 1017.04 1017.43 1016.94 1016.72 1017.09 1017.62 1017.84 1017.30 1017.51 1016.96 1016.55 1016.38 1016.35 1016.09 1016.12 1016.22 1016.26 1016.51 1016.57 1016.62 1015.85 1014.64 1013.71 1013.26 1013.47 1013.51 1013.96 1014.81 1015.35 1015.66 1015.79 1012.99 1011.17 1011.25 1004.55 1004.55 1005.52 1005.25 1005.16 1004.53 1003.71 1003.40
1017.19 1017.11 1017.32 1017.38 1017.13 1016.87 1016.97 1017.65 1018.56 1019.22 1018.97 1018.52 1018.03 1017.54 1017.58 1017.66 1017.47 1017.34 1017.43 1017.59 1017.52 1018.01 1017.97 1017.13 1015.05 1014.36 1014.39 1014.38 1014.14 1014.32 1014.83 1015.27 1014.93 1013.98 1012.44 1011.72 1008.88 1005.77 1005.36 1005.25 1004.97 1004.64 1004.09 1003.68 1003.25
1017.28 1017.56 1017.77 1017.44 1017.16 1017.01 1017.61 1019.17 1020.42 1020.40 1020.27 1019.79 1018.88 1018.82 1018.93 1018.87 1018.99 1018.70 1018.77 1018.81 1019.44 1019.48 1019.71 1018.65 1016.48 1014.73 1014.32 1014.32 1014.17 1014.18 1014.36 1013.92 1014.42 1013.04 1013.02 1010.32 1008.11 1006.35 1005.66 1005.46 1005.24 1004.83 1004.40 1004.12 1003.72
1018.13 1018.33 1018.41 1017.66 1017.19 1017.45 1019.00 1020.71 1021.13 1021.10 1020.92 1020.55 1020.61 1020.40 1020.62 1020.62 1020.50 1020.32 1020.07 1020.52 1020.59 1020.58 1020.41 1020.04 1017.60 1015.74 1015.13 1014.69 1014.56 1014.57 1014.51 1014.57 1014.94 1014.18 1012.03 1010.08 1009.01 1007.34 1007.03 1006.81 1006.56 1006.64 1006.74 1006.00 1005.24
1018.65 1019.26 1018.62 1017.94 1017.60 1019.01 1021.54 1022.13 1021.97 1021.80 1021.54 1021.46 1021.52 1021.68 1021.98 1022.12 1022.01 1021.92 1021.33 1021.49 1021.23 1021.19 1021.02 1020.90 1020.00 1016.70 1016.57 1016.16 1016.12 1015.95 1015.35 1015.36 1014.95 1014.27 1012.96 1011.70 1008.85 1007.93 1008.90 1008.96 1008.46 1007.58 1007.18 1006.74 1005.81
1019.98 1020.70 1019.67 1018.62 1020.22 1022.37 1023.30 1023.26 1022.94 1022.69 1022.42 1022.24 1022.29 1022.73 1023.06 1023.14 1022.95 1022.70 1022.20 1022.03 1022.44 1022.49 1022.06 1021.82 1021.10 1018.74 1017.48 1017.14 1016.64 1016.57 1016.14 1016.42 1017.06 1015.73 1015.29 1013.87 1010.33 1009.02 1008.77 1008.48 1008.45 1007.94 1007.42 1005.91 1005.76
1022.13 1022.19 1020.53 1020.06 1023.08 1024.62 1024.51 1024.24 1023.76 1023.56 1023.60 1023.52 1023.61 1023.82 1024.07 1024.23 1024.17 1023.43 1023.05 1022.90 1023.16 1023.27 1023.14 1022.67 1021.99 1020.85 1017.30 1017.54 1017.39 1017.67 1017.73 1017.78 1018.05 1017.97 1016.38 1015.07 1011.85 1010.51 1009.63 1009.43 1008.77 1008.62 1008.37 1007.64 1006.82
1023.18 1023.97 1023.97 1024.43 1025.90 1025.76 1025.88 1025.46 1024.87 1024.55 1024.70 1024.78 1024.81 1024.96 1025.22 1025.27 1024.95 1024.30 1024.04 1023.67 1023.75 1023.68 1023.17 1022.98 1022.66 1022.49 1020.89 1019.92 1019.51 1018.75 1018.70 1018.73 1018.52 1017.38 1015.98 1014.40 1013.00 1012.25 1010.60 1009.79 1009.72 1009.18 1008.79 1007.99 1006.90
1024.56 1026.86 1027.07 1027.51 1027.21 1026.96 1026.61 1026.25 1025.91 1025.64 1025.63 1025.74 1025.87 1026.43 1026.71 1026.51 1025.96 1025.38 1025.13 1024.80 1024.21 1023.82 1023.50 1023.69 1023.01 1022.87 1021.56 1021.15 1020.13 1018.94 1018.28 1017.96 1017.37 1016.75 1016.28 1013.82 1012.75 1012.10 1010.61 1009.53 1009.47 1009.27 1008.89 1007.47 1006.22
1026.05 1027.18 1027.66 1028.08 1027.94 1027.65 1027.28 1027.00 1026.95 1026.88 1026.86 1026.76 1026.93 1027.18 1027.19 1027.27 1026.91 1025.82 1025.76 1025.45 1024.75 1023.93 1023.79 1023.81 1022.66 1022.75 1021.47 1021.39 1020.06 1018.87 1017.56 1016.68 1016.19 1015.46 1014.82 1014.07 1012.81 1012.76 1011.87 1011.06 1009.99 1009.36 1009.00 1007.93 1006.85
1026.92 1027.33 1027.62 1028.42 1028.21 1028.10 1027.89 1027.54 1027.72 1027.73 1027.35 1027.40 1027.62 1027.60 1027.20 1026.58 1026.24 1026.02 1025.68 1025.16 1024.39 1023.83 1023.61 1023.65 1022.97 1022.97 1021.66 1021.11 1019.99 1018.58 1016.08 1015.15 1014.67 1014.43 1013.69 1013.40 1013.59 1013.52 1012.56 1011.49 1010.44 1009.10 1008.26 1007.57 1006.76
Thickness
5617 5624 5630 5636 5643 5650 5658 5667 5676 5686 5695 5704 5711 5718 5724 5730 5738 5741 5741 5756 5761 5765 5770 5772 5774 5773 5774 5767 5768 5762 5733 5726 5742 5738 5756 5769 5766 5776 5777 5767 5771 5774 5774 5781 5781
5622 5628 5634 5639 5647 5654 5662 5671 5680 5689 5698 5706 5713 5719 5725 5731 5736 5738 5756 5760 5761 5764 5765 5762 5760 5765 5755 5761 5757 5746 5725 5736 5754 5757 5759 5767 5766 5768 5768 5764 5765 5769 5776 5778 5775
5625 5631 5637 5644 5651 5659 5667 5676 5684 5693 5702 5710 5716 5721 5727 5732 5734 5742 5759 5760 5761 5762 5763 5762 5761 5760 5753 5756 5753 5744 5734 5749 5762 5766 5769 5766 5764 5770 5765 5757 5767 5771 5776 5772 5768
5628 5634 5641 5649 5656 5665 5675 5683 5691 5698 5706 5712 5718 5724 5730 5734 5724 5750 5757 5759 5759 5761 5760 5757 5756 5748 5742 5742 5752 5743 5752 5755 5763 5768 5763 5763 5769 5766 5766 5780 5786 5782 5780 5773 5767
5633 5639 5646 5653 5662 5671 5681 5690 5697 5704 5711 5717 5721 5727 5732 5727 5732 5754 5756 5757 5758 5757 5753 5749 5745 5742 5735 5741 5746 5743 5751 5758 5762 5763 5764 5767 5764 5765 5773 5778 5783 5779 5775 5771 5772
5638 5645 5652 5660 5668 5678 5687 5695 5702 5708 5714 5718 5723 5728 5729 5720 5751 5754 5755 5755 5755 5753 5749 5748 5744 5744 5739 5738 5739 5748 5749 5752 5757 5757 5759 5758 5760 5767 5780 5778 5774 5771 5770 5770 5773
5647 5654 5661 5669 5678 5687 5695 5701 5706 5710 5715 5719 5724 5728 5724 5729 5749 5751 5752 5751 5753 5751 5744 5749 5748 5740 5739 5732 5742 5744 5736 5740 5748 5751 5748 5751 5746 5764 5774 5770 5767 5765 5764 5766 5772
5658 5664 5671 5678 5686 5694 5701 5707 5711 5714 5717 5719 5723 5725 5718 5743 5745 5746 5747 5747 5749 5750 5748 5749 5748 5740 5736 5736 5730 5727 5727 5717 5741 5740 5745 5741 5741 5773 5769 5760 5764 5761 5759 5761 5766
5670 5676 5682 5689 5695 5701 5707 5712 5716 5718 5720 5721 5722 5721 5716 5743 5738 5745 5744 5738 5740 5743 5744 5745 5739 5727 5729 5711 5699 5699 5693 5700 5713 5732 5734 5729 5727 5767 5765 5752 5756 5756 5759 5758 5763
5678 5684 5690 5696 5702 5707 5712 5715 5718 5720 5721 5722 5723 5714 5730 5729 5737 5740 5741 5740 5733 5732 5726 5724 5709 5705 5698 5694 5676 5686 5687 5694 5701 5729 5720 5716 5721 5752 5750 5746 5746 5753 5752 5750 5754
5687 5692 5697 5701 5706 5710 5715 5717 5711 5712 5718 5717 5719 5718 5725 5734 5739 5733 5735 5731 5728 5718 5701 5703 5689 5691 5692 5694 5699 5696 5688 5686 5703 5718 5708 5704 5713 5730 5751 5734 5741 5748 5748 5750 5760
5691 5696 5701 5706 5711 5715 5716 5714 5714 5715 5707 5720 5718 5717 5724 5730 5719 5726 5731 5717 5712 5696 5698 5685 5680 5701 5701 5693 5685 5683 5678 5683 5696 5710 5697 5698 5719 5732 5743 5746 5747 5748 5751 5759 5761
5698 5703 5709 5714 5718 5717 5715 5712 5716 5718 5701 5712 5719 5718 5721 5722 5712 5715 5721 5712 5705 5694 5687 5676 5700 5707 5695 5688 5678 5676 5668 5676 5677 5687 5693 5685 5724 5728 5741 5752 5747 5749 5758 5764 5762
5704 5709 5714 5718 5716 5712 5710 5713 5714 5715 5685 5703 5710 5717 5721 5719 5711 5721 5719 5711 5700 5691 5682 5679 5699 5694 5685 5680 5681 5668 5685 5682 5673 5661 5662 5688 5688 5726 5734 5742 5743 5747 5751 5754 5756
5709 5712 5715 5719 5713 5710 5713 5716 5716 5709 5674 5705 5709 5725 5718 5709 5708 5710 5715 5708 5692 5692 5686 5688 5695 5689 5681 5686 5683 5675 5685 5675 5667 5651 5649 5662 5640 5747 5728 5727 5730 5745 5747 5750 5754
5712 5714 5714 5714 5713 5713 5714 5715 5711 5684 5678 5698 5705 5700 5701 5704 5703 5705 5703 5705 5699 5688 5684 5688 5697 5695 5692 5698 5688 5687 5674 5664 5640 5631 5623 5674 5636 5724 5727 5717 5729 5739 5743 5748 5750
5715 5715 5714 5711 5707 5711 5712 5705 5680 5667 5692 5680 5682 5687 5688 5684 5687 5685 5681 5677 5668 5663 5669 5675 5684 5691 5692 5676 5679 5670 5648 5615 5614 5603 5637 5658 5632 5721 5720 5712 5718 5718 5730 5748 5747
5714 5713 5709 5706 5708 5709 5705 5689 5675 5664 5663 5675 5677 5676 5676 5669 5672 5669 5667 5657 5662 5655 5640 5644 5657 5677 5674 5664 5655 5647 5631 5604 5595 5598 5621 5629 5628 5693 5704 5703 5707 5711 5714 5723 5733
5710 5706 5703 5703 5704 5704 5690 5656 5649 5653 5656 5656 5662 5659 5656 5657 5655 5653 5649 5648 5635 5631 5624 5619 5634 5657 5658 5651 5646 5633 5618 5631 5600 5623 5591 5634 5647 5678 5689 5687 5689 5693 5700 5701 5709
5702 5697 5694 5699 5701 5695 5670 5653 5651 5654 5650 5652 5644 5647 5637 5634 5634 5628 5634 5625 5619 5616 5612 5606 5611 5638 5638 5638 5633 5618 5615 5588 5577 5567 5580 5608 5608 5632 5656 5661 5660 5653 5655 5667 5683
5694 5685 5689 5693 5694 5673 5644 5644 5646 5645 5642 5639 5635 5632 5626 5617 5620 5616 5620 5609 5608 5603 5598 5586 5581 5617 5605 5599 5580 5578 5579 5575 5570 5577 5562 5554 5589 5631 5594 5602 5613 5629 5640 5642 5657
5677 5666 5678 5684 5657 5625 5632 5632 5633 5630 5629 5626 5627 5618 5612 5605 5602 5602 5603 5596 5586 5579 5573 5568 5560 5575 5585 5584 5576 5559 5553 5542 5518 5532 5518 5508 5539 5592 5591 5597 5600 5606 5615 5638 5646
5655 5649 5667 5669 5630 5613 5615 5623 5624 5620 5614 5609 5606 5602 5596 5592 5583 5586 5582 5577 5564 5552 5538 5536 5518 5505 5553 5554 5544 5523 5522 5514 5501 5475 5483 5483 5508 5566 5568 5567 5576 5575 5577 5595 5613
5645 5641 5631 5622 5602 5609 5601 5606 5607 5606 5598 5593 5593 5581 5575 5572 5571 5562 5560 5560 5548 5538 5534 5515 5501 5488 5486 5490 5487 5475 5477 5477 5471 5455 5474 5487 5494 5518 5534 5539 5537 5540 5548 5566 5586
5626 5606 5602 5593 5593 5592 5591 5589 5591 5588 5582 5576 5574 5557 5550 5540 5541 5540 5539 5533 5535 5525 5507 5480 5472 5464 5470 5458 5458 5456 5453 5457 5453 5452 5441 5467 5478 5494 5514 5523 5519 5518 5525 5548 5569
5610 5602 5587 5578 5577 5582 5576 5581 5577 5570 5565 5560 5554 5541 5534 5519 5520 5518 5514 5506 5508 5507 5487 5458 5453 5440 5435 5435 5438 5429 5448 5455 5450 5452 5450 5456 5465 5468 5469 5477 5492 5497 5508 5522 5539
5595 5589 5584 5571 5566 5568 5564 5566 5557 5549 5550 5544 5532 5522 5516 5518 5515 5508 5504 5497 5485 5474 5457 5441 5425 5398 5410 5424 5419 5418 5456 5457 5457 5456 5461 5451 5436 5430 5438 5451 5465 5486 5492 5502 5516